Cloud_Cover
4 0 56 32 4 100 2 42 49 1 52 81 2 0 0 0 0 0 0 0 0 0 0 0 0 0 0 0 0 0 0 0 0 0 0 0 0 2 0 4 3 1 14 25 25 5 6
0 2 99 29 58 10 0 17 5 4 51 0 0 0 0 0 0 0 0 0 0 0 0 0 6 6 0 0 0 0 0 0 0 0 0 0 0 0 1 0 4 33 6 4 5 5 3
8 0 100 0 0 0 0 0 0 0 0 4 2 0 0 0 0 0 0 0 0 0 4 16 13 0 0 0 0 0 0 0 0 0 0 0 0 0 0 0 0 2 3 3 4 5 4
94 0 0 0 1 0 0 0 0 0 0 0 0 0 0 0 0 0 0 0 0 7 63 2 22 0 0 0 0 0 0 0 0 0 0 0 0 0 0 0 2 4 0 5 31 4 3
76 2 4 16 5 0 0 0 0 0 0 0 0 0 0 0 0 0 0 0 0 13 8 1 3 0 0 0 0 0 0 0 0 0 0 0 0 0 0 0 0 4 4 9 100 2 3
85 8 1 0 0 0 0 0 0 0 0 0 0 0 0 0 0 0 0 0 0 41 6 0 0 0 0 0 0 0 0 0 0 0 0 0 0 0 0 0 0 5 5 86 80 11 2
59 14 1 0 2 0 0 0 0 0 0 0 0 0 0 0 0 0 0 0 0 0 0 0 0 0 0 0 0 0 0 0 0 0 0 0 0 0 0 0 0 5 100 77 100 53 2
98 100 48 4 0 0 0 0 0 0 0 0 0 0 0 0 0 0 2 0 0 0 0 0 0 0 0 0 0 0 0 0 0 0 0 0 0 0 0 0 0 4 50 89 100 9 57
0 0 4 16 13 0 0 0 0 0 0 0 0 0 0 0 0 0 0 0 0 0 0 0 0 0 0 0 0 0 0 0 0 0 0 0 0 0 0 0 0 0 5 84 100 40 100
7 62 0 36 46 1 0 0 0 0 0 0 0 0 0 0 0 0 0 0 0 0 0 0 0 0 0 0 0 0 0 0 0 0 0 0 0 0 0 0 0 0 4 62 95 96 100
0 40 6 0 0 0 1 1 1 1 4 1 5 0 0 0 0 0 0 0 0 0 0 0 0 0 0 0 0 0 0 0 0 0 0 0 0 0 0 0 0 0 4 5 76 100 100
0 2 4 5 5 5 28 29 16 28 5 4 1 4 5 5 2 0 0 0 0 0 0 0 0 0 0 0 0 0 0 0 0 0 0 0 0 0 0 0 0 0 2 5 14 100 100
51 1 4 5 5 10 96 100 73 60 90 100 100 94 38 11 5 5 4 0 0 0 0 1 5 0 0 0 0 0 0 0 0 0 0 0 0 0 0 0 0 0 0 9 62 100 47
100 29 5 5 15 67 5 5 5 5 5 63 94 5 5 14 5 8 3 0 0 10 28 0 0 0 0 0 0 0 0 0 0 0 0 0 0 0 0 5 0 0 0 0 5 58 95
12 5 5 5 4 3 7 80 100 98 16 6 5 3 5 5 5 3 0 0 6 100 38 43 76 97 3 0 0 0 0 0 0 0 0 0 0 0 0 0 1 0 0 0 5 73 91
0 3 2 4 4 4 6 7 6 48 48 82 100 77 26 9 5 1 0 8 47 100 100 90 35 5 16 50 2 5 0 0 0 0 0 0 0 0 0 0 0 0 3 0 0 17 100
5 5 5 5 5 15 90 81 49 24 5 5 6 24 2 5 5 5 6 43 36 100 100 93 100 35 4 12 34 25 6 0 0 0 0 0 0 0 0 0 1 1 0 0 2 27 11
1 3 5 5 5 5 5 5 5 5 5 5 5 60 5 10 5 5 2 11 75 12 12 68 100 100 99 5 4 3 42 4 0 0 0 0 0 0 0 0 0 0 0 0 0 0 4
5 5 5 5 5 5 5 5 5 5 5 55 5 5 4 4 4 7 9 47 20 20 43 28 95 100 100 57 0 1 5 46 0 0 0 0 0 0 0 0 0 0 0 3 0 2 4
5 5 5 5 5 5 5 5 5 5 64 60 42 3 6 59 12 6 8 92 100 100 95 86 100 100 100 48 5 5 5 87 3 0 5 0 0 0 0 0 0 0 0 0 0 0 0
37 8 5 5 5 5 5 12 25 13 19 98 56 33 93 14 100 100 96 25 100 99 100 100 99 100 100 100 11 25 92 100 46 5 5 0 0 0 0 4 5 4 0 0 0 0 0
5 5 5 73 61 38 49 22 6 92 88 100 76 100 87 62 96 16 100 100 100 100 100 100 100 100 100 100 84 100 100 100 97 5 5 8 0 0 4 2 2 6 10 5 0 0 0
5 5 80 60 87 80 78 76 86 92 29 100 90 49 100 6 93 100 15 100 100 100 100 100 100 100 100 100 100 95 93 100 100 85 5 98 18 5 5 5 72 58 0 0 4 5 1
12 21 5 10 5 9 11 76 100 100 16 96 100 100 92 22 100 97 100 100 99 100 100 100 100 100 100 98 53 31 99 100 92 96 75 65 70 80 71 100 92 1 8 32 6 5 10
5 56 42 64 83 16 79 100 98 100 100 86 90 100 100 44 100 100 100 100 100 70 46 100 100 100 100 100 92 100 100 100 100 100 100 100 100 100 97 86 11 2 38 18 26 4 3
5 5 83 84 100 100 100 100 100 100 100 100 99 100 100 100 68 100 100 100 100 91 100 93 100 100 100 100 100 100 100 100 100 100 71 100 98 79 100 100 88 72 96 20 57 0 0
5 50 5 91 100 100 100 100 97 99 95 34 94 100 100 100 100 49 98 100 100 100 100 100 80 100 100 100 100 100 100 88 100 100 100 100 89 5 68 90 38 86 16 55 15 59 29
51 78 100 100 100 100 100 100 100 100 85 26 57 97 93 100 99 68 100 100 100 99 100 100 100 100 100 100 100 100 100 100 100 100 100 100 99 62 70 100 52 35 11 50 46 5 2
13 6 10 98 100 100 100 100 100 100 98 5 90 68 100 100 68 99 100 100 100 100 100 93 94 100 100 100 100 100 100 100 100 100 100 100 79 99 97 92 48 9 49 5 0 0 2